LKKB Weather Reports


time (UTC)temp
C
wind
direction
speed
KPH
gust
KPH
rain 1hr
cm
rain 24hr
cm
rain mn
cm
humidity
%
barometer
mb
20260904042257 17 200 14.5 0.0 0.00 0.00 0.00 77
20260904040103 17 200 14.5 0.0 0.00 0.00 0.00 82 1017.0
20260904033102 17 200 14.5 0.0 0.00 0.00 0.00 82 1017.0
20260904030103 17 210 14.5 0.0 0.00 0.00 0.00 77 1018.0
20260904023103 17 210 12.9 0.0 0.00 0.00 0.00 82 1018.0
20260904021856 17 210 14.5 0.0 0.00 0.00 0.00 77
20260904013103 17 230 14.5 0.0 0.00 0.00 0.00 77 1018.0
20260904012156 17 230 14.5 0.0 0.00 0.00 0.00 72
20260904010104 17 230 12.9 0.0 0.00 0.00 0.00 77 1018.0
20260904003103 17 210 12.9 0.0 0.00 0.00 0.00 77 1018.0
20260904001856 17 210 19.3 0.0 0.00 0.00 0.00 77
20260904000103 17 210 19.3 0.0 0.00 0.00 0.00 77 1018.0
20260903233103 17 210 16.1 0.0 0.00 0.00 0.00 77 1019.0
20260903231856 17 210 19.3 0.0 0.00 0.00 0.00 77
20260903223102 17 210 16.1 0.0 0.00 0.00 0.00 77 1018.0
20260903222257 18 220 19.3 0.0 0.00 0.00 0.00 68
20260903213102 17 230 16.1 0.0 0.00 0.00 0.00 77 1019.0
20260903211857 18 230 19.3 0.0 0.00 0.00 0.00 68
20260903203103 17 220 16.1 0.0 0.00 0.00 0.00 77 1019.0
20260903201857 17 210 19.3 0.0 0.00 0.00 0.00 72
20260903193103 17 230 16.1 0.0 0.00 0.00 0.00 72 1019.0
20260903192056 18 240 19.3 0.0 0.00 0.00 0.00 63
20260903190103 18 240 16.1 0.0 0.00 0.00 0.00 68 1019.0
20260903183104 18 250 24.1 0.0 0.00 0.00 0.00 68 1019.0
20260903181856 20 260 25.7 0.0 0.00 0.00 0.00 60
20260903173103 21 260 25.7 0.0 0.00 0.00 0.00 56 1019.0
20260903171910 21 260 25.7 0.0 0.00 0.00 0.00 56
20260903170103 21 250 27.4 0.0 0.00 0.00 0.00 56 1019.0
20260903163103 22 250 25.7 0.0 0.00 0.00 0.00 49 1018.0
20260903162211 22 240 22.5 0.0 0.00 0.00 0.00 46
20260903153102 22 240 16.1 0.0 0.00 0.00 0.00 49 1018.0
20260903151856 22 250 19.3 0.0 0.00 0.00 0.00 43
20260903143103 22 260 14.5 0.0 0.00 0.00 0.00 46 1018.0
20260903141856 22 250 14.5 0.0 0.00 0.00 0.00 43
20260903133102 22 250 19.3 0.0 0.00 0.00 0.00 49 1019.0
20260903132058 22 240 22.5 0.0 0.00 0.00 0.00 43
20260903123104 22 250 24.1 0.0 0.00 0.00 0.00 46 1019.0
20260903121856 22 230 22.5 0.0 0.00 0.00 0.00 43
20260903113102 22 240 14.5 0.0 0.00 0.00 0.00 49 1019.0
20260903111851 22 230 19.3 0.0 0.00 0.00 0.00 46
20260903103103 22 280 20.9 0.0 0.00 0.00 0.00 43 1020.0
20260903102254 22 260 22.5 0.0 0.00 0.00 0.00 40
20260903100104 22 270 14.5 0.0 0.00 0.00 0.00 43 1020.0
20260903093102 21 250 16.1 0.0 0.00 0.00 0.00 49 1020.0
20260903091853 21 240 11.3 0.0 0.00 0.00 0.00 49
20260903083103 20 230 9.7 0.0 0.00 0.00 0.00 60 1020.0
20260903081851 20 240 11.3 0.0 0.00 0.00 0.00 56
20260903080211 18 230 8.0 0.0 0.00 0.00 0.00 63 1021.0
20260903073103 17 230 8.0 0.0 0.00 0.00 0.00 72 1021.0
20260903072054 17 250 11.3 0.0 0.00 0.00 0.00 67
20260903070210 17 220 9.7 0.0 0.00 0.00 0.00 77 1021.0
20260903063102 17 240 4.8 0.0 0.00 0.00 0.00 77 1020.0
20260903061851 16 330 3.2 0.0 0.00 0.00 0.00 82
20260903053103 15 220 1.6 0.0 0.00 0.00 0.00 87 1020.0
20260903051851 15 210 3.2 0.0 0.00 0.00 0.00 87
20260903043102 13 220 8.0 0.0 0.00 0.00 0.00 93 1020.0